When you browse on this site, cookies collect data to enhance your experience and personalize the content and advertising you see.
Visit our Privacy Policy to learn more. By continuing to use the site, you agree to this use of cookies and data.
  • In Portugal
  • List of Countries
  • For 7 days
  • Water Temperature
  • Satellite Maps
  • Weather Map
  • Weather Widgets
  • user-avatar
    Login

    Hourly Weather Polimonie

    Today, 23 February, Saturday

    Time Temperature Precipitation Wind Pressure Humidity
    00:00 -8°C° 0 mm 4 mps 766 mmHg 52%
    01:00 -7°C° 0 mm 3 mps 766 mmHg 55%
    02:00 -6°C° 0 mm 2 mps 767 mmHg 56%
    03:00 -7°C° 0 mm 2 mps 767 mmHg 57%
    04:00 -6°C° 0 mm 1 mps 767 mmHg 58%
    05:00 -6°C° 0 mm 1 mps 766 mmHg 59%
    06:00 -6°C° 0 mm 1 mps 766 mmHg 58%
    07:00 -6°C° 0 mm 1 mps 767 mmHg 56%
    08:00 -6°C° 0 mm 2 mps 767 mmHg 53%
    09:00 -6°C° 0 mm 2 mps 767 mmHg 49%
    10:00 -6°C° 0 mm 3 mps 767 mmHg 44%
    11:00 -5°C° 0 mm 4 mps 767 mmHg 40%
    12:00 -4°C° 0 mm 4 mps 766 mmHg 37%
    13:00 -4°C° 0 mm 4 mps 766 mmHg 34%
    14:00 -3°C° 0 mm 4 mps 766 mmHg 31%
    15:00 -4°C° 0 mm 5 mps 765 mmHg 32%
    16:00 -4°C° 0 mm 5 mps 765 mmHg 33%
    17:00 -4°C° 0 mm 6 mps 764 mmHg 34%
    18:00 -5°C° 0 mm 5 mps 764 mmHg 36%
    19:00 -5°C° 0 mm 5 mps 763 mmHg 37%
    20:00 -5°C° 0 mm 5 mps 763 mmHg 39%
    21:00 -4°C° 0 mm 4 mps 763 mmHg 41%
    22:00 -5°C° 0 mm 4 mps 762 mmHg 42%
    23:00 -5°C° 0 mm 4 mps 762 mmHg 44%

    Tomorrow, 24 February, Sunday

    Time Temperature Precipitation Wind Pressure Humidity
    00:00 -4°C° 0 mm 4 mps 762 mmHg 46%
    01:00 -5°C° 0 mm 5 mps 761 mmHg 47%
    02:00 -5°C° 0 mm 5 mps 761 mmHg 49%
    03:00 -5°C° 0 mm 5 mps 761 mmHg 55%
    04:00 -5°C° 0 mm 5 mps 760 mmHg 60%
    05:00 -4°C° 0 mm 4 mps 760 mmHg 65%
    06:00 -4°C° 0 mm 4 mps 760 mmHg 68%
    07:00 -4°C° 0 mm 3 mps 760 mmHg 71%
    08:00 -4°C° 0 mm 3 mps 760 mmHg 74%
    09:00 -2°C° 0 mm 3 mps 759 mmHg 75%
    10:00 -1°C° 0 mm 3 mps 759 mmHg 75%
    11:00 -1°C° 0 mm 3 mps 759 mmHg 75%
    12:00 0°C° 0 mm 3 mps 759 mmHg 72%
    13:00 0°C° 0 mm 4 mps 759 mmHg 70%
    14:00 +3°C° 0 mm 4 mps 759 mmHg 67%
    15:00 +1°C° 0 mm 4 mps 759 mmHg 70%
    16:00 +1°C° 0 mm 4 mps 758 mmHg 74%
    17:00 +1°C° 0 mm 4 mps 758 mmHg 77%
    18:00 0°C° 0 mm 4 mps 758 mmHg 81%
    19:00 0°C° 0 mm 4 mps 758 mmHg 84%
    20:00 -1°C° 0 mm 5 mps 757 mmHg 88%
    21:00 -1°C° 0 mm 4 mps 757 mmHg 88%
    22:00 -1°C° 0 mm 4 mps 757 mmHg 88%
    23:00 -2°C° 0 mm 4 mps 757 mmHg 88%

    Day after tomorrow, 25 February, Monday

    Time Temperature Precipitation Wind Pressure Humidity
    00:00 -2°C° 0 mm 4 mps 757 mmHg 90%
    01:00 -2°C° 0 mm 4 mps 757 mmHg 92%
    02:00 -1°C° 0 mm 3 mps 757 mmHg 94%
    03:00 -1°C° 0 mm 3 mps 757 mmHg 95%
    04:00 -1°C° 0 mm 3 mps 757 mmHg 96%
    05:00 -1°C° 0 mm 3 mps 757 mmHg 97%
    06:00 -1°C° 0 mm 3 mps 757 mmHg 96%
    07:00 -1°C° 0 mm 3 mps 757 mmHg 95%
    08:00 -1°C° 0 mm 3 mps 757 mmHg 95%
    09:00 0°C° 0 mm 3 mps 757 mmHg 89%
    10:00 +2°C° 0 mm 3 mps 757 mmHg 84%
    11:00 +3°C° 0 mm 4 mps 757 mmHg 78%
    12:00 +4°C° 0 mm 4 mps 757 mmHg 79%
    13:00 +3°C° 0 mm 5 mps 756 mmHg 80%
    14:00 +4°C° 0 mm 6 mps 756 mmHg 81%
    15:00 +3°C° 0 mm 6 mps 756 mmHg 85%
    16:00 +2°C° 0 mm 6 mps 756 mmHg 89%
    17:00 +1°C° 0 mm 6 mps 755 mmHg 93%
    18:00 +1°C° 0 mm 6 mps 755 mmHg 92%
    19:00 -1°C° 0 mm 6 mps 755 mmHg 92%
    20:00 -1°C° 0 mm 5 mps 756 mmHg 91%
    21:00 -1°C° 0 mm 5 mps 755 mmHg 90%
    22:00 -1°C° 0 mm 5 mps 755 mmHg 89%
    23:00 -2°C° 0 mm 4 mps 755 mmHg 87%

    26 February, Tuesday

    Time Temperature Precipitation Wind Pressure Humidity
    00:00 -2°C° 0 mm 4 mps 755 mmHg 87%
    01:00 -2°C° 0 mm 4 mps 755 mmHg 87%
    02:00 -2°C° 0 mm 4 mps 754 mmHg 87%
    03:00 -2°C° 0 mm 4 mps 754 mmHg 88%
    04:00 -2°C° 0 mm 5 mps 753 mmHg 89%
    05:00 -2°C° 0 mm 5 mps 752 mmHg 90%
    06:00 -2°C° 0 mm 5 mps 752 mmHg 91%
    07:00 -2°C° 0 mm 5 mps 751 mmHg 92%
    08:00 -1°C° 0 mm 5 mps 751 mmHg 93%
    09:00 -1°C° 0 mm 6 mps 751 mmHg 89%
    10:00 +1°C° 0 mm 6 mps 751 mmHg 85%
    11:00 +2°C° 0 mm 7 mps 751 mmHg 81%
    12:00 +3°C° 0 mm 7 mps 751 mmHg 75%
    13:00 +4°C° 0 mm 7 mps 751 mmHg 69%
    14:00 +5°C° 0 mm 8 mps 751 mmHg 64%
    15:00 +4°C° 0 mm 7 mps 751 mmHg 64%
    16:00 +4°C° 0 mm 6 mps 752 mmHg 65%
    17:00 +3°C° 0 mm 6 mps 752 mmHg 66%
    18:00 +2°C° 0 mm 6 mps 753 mmHg 71%
    19:00 +1°C° 0 mm 5 mps 753 mmHg 75%
    20:00 +1°C° 0 mm 5 mps 754 mmHg 80%
    21:00 0°C° 0 mm 5 mps 754 mmHg 83%
    22:00 -1°C° 0 mm 5 mps 754 mmHg 86%
    23:00 -1°C° 0 mm 4 mps 754 mmHg 89%

    27 February, Wednesday

    Time Temperature Precipitation Wind Pressure Humidity
    00:00 -1°C° 0 mm 4 mps 754 mmHg 90%
    01:00 -2°C° 0 mm 4 mps 754 mmHg 92%
    02:00 -2°C° 0 mm 4 mps 754 mmHg 93%
    03:00 -2°C° 0 mm 4 mps 754 mmHg 93%
    04:00 -2°C° 0 mm 4 mps 754 mmHg 92%
    05:00 -1°C° 0 mm 3 mps 754 mmHg 92%
    06:00 -1°C° 0 mm 3 mps 753 mmHg 90%
    07:00 -1°C° 0 mm 3 mps 753 mmHg 88%
    08:00 -1°C° 0 mm 3 mps 753 mmHg 87%
    09:00 +1°C° 0 mm 3 mps 752 mmHg 79%
    10:00 +1°C° 0 mm 4 mps 752 mmHg 71%
    11:00 +4°C° 0 mm 4 mps 751 mmHg 62%
    12:00 +3°C° 0 mm 5 mps 751 mmHg 65%
    13:00 +5°C° 0 mm 5 mps 750 mmHg 68%
    14:00 +5°C° 0 mm 5 mps 749 mmHg 70%
    15:00 +5°C° 0 mm 5 mps 749 mmHg 77%
    16:00 +4°C° 0 mm 4 mps 749 mmHg 83%
    17:00 +4°C° 0 mm 4 mps 749 mmHg 89%
    18:00 +3°C° 0 mm 3 mps 749 mmHg 90%
    19:00 +2°C° 0 mm 3 mps 748 mmHg 92%
    20:00 +3°C° 0 mm 2 mps 748 mmHg 93%
    21:00 +2°C° 0 mm 2 mps 748 mmHg 94%
    22:00 +1°C° 0 mm 2 mps 747 mmHg 94%
    23:00 +1°C° 0 mm 2 mps 746 mmHg 95%

    28 February, Thursday

    Time Temperature Precipitation Wind Pressure Humidity
    00:00 0°C° 0 mm 3 mps 746 mmHg 95%
    01:00 0°C° 0 mm 3 mps 745 mmHg 94%
    02:00 -1°C° 0 mm 4 mps 744 mmHg 94%
    03:00 -1°C° 0 mm 5 mps 743 mmHg 94%
    04:00 0°C° 0 mm 5 mps 741 mmHg 93%
    05:00 -1°C° 0 mm 6 mps 740 mmHg 93%
    06:00 +1°C° 0 mm 6 mps 739 mmHg 91%
    07:00 +1°C° 0 mm 6 mps 738 mmHg 88%
    08:00 +1°C° 0 mm 6 mps 737 mmHg 86%
    09:00 +1°C° 0 mm 6 mps 737 mmHg 86%
    10:00 +2°C° 0 mm 7 mps 736 mmHg 86%
    11:00 +2°C° 0 mm 7 mps 736 mmHg 87%
    12:00 +2°C° 0 mm 7 mps 736 mmHg 85%
    13:00 +2°C° 0 mm 8 mps 736 mmHg 83%
    14:00 +2°C° 0 mm 8 mps 736 mmHg 81%
    15:00 +2°C° 0 mm 8 mps 736 mmHg 79%
    16:00 +3°C° 0 mm 7 mps 736 mmHg 77%
    17:00 +3°C° 0 mm 7 mps 736 mmHg 75%
    18:00 +2°C° 0 mm 7 mps 736 mmHg 76%
    19:00 +2°C° 0 mm 7 mps 736 mmHg 76%
    20:00 0°C° 0 mm 7 mps 736 mmHg 77%
    21:00 0°C° 0 mm 7 mps 736 mmHg 76%
    22:00 0°C° 0 mm 7 mps 737 mmHg 75%
    23:00 -1°C° 0 mm 7 mps 737 mmHg 73%
    Show more